This demonstration page uses our WeatherBlox Daily Observations layout. Learn more.

Left ArrowRight Arrow

39.92423, -83.80882

Hourly Observations for August 14, 2016

Temp ( °F °C ) Dew Point ( °F °C ) Humidity (%) Winds ( mph kmh ) Pressure ( in mb ) Visibility ( mi km ) Precip ( " mm )
12:03 am 00:03 Mostly Cloudy 73 23 72 22 94 94 SW 8 13 29.97 1015 10 16.0934 N/A
12:56 am 00:56 Cloudy 73 22.8 71 21.7 94 94 undefined N/A N/A 10 16.0934 N/A
1:20 am 01:20 Cloudy 73 23 72 22 94 94 WSW 8 13 29.97 1015 10 16.0934 0.01 0.254
1:56 am 01:56 Cloudy 73 22.8 71 21.7 94 94 WSW 9 15 29.97 1015 10 16.0934 0.01 0.254
2:28 am 02:28 Cloudy 73 23 72 22 94 94 WSW 8 13 N/A 10 16.0934 N/A
2:56 am 02:56 Cloudy 73 22.8 71 21.7 94 94 W 14 22 29.97 1015 10 16.0934 N/A
3:56 am 03:56 Cloudy 73 22.8 72 22.2 96 96 WSW 6 9 29.98 1015 10 16.0934 N/A
4:56 am 04:56 Cloudy 73 22.8 71 21.7 94 94 SW 6 9 N/A 10 16.0934 0.01 0.254
5:35 am 05:35 Cloudy 73 23 72 22 94 94 WSW 7 11 30 1016 10 16.0934 N/A
5:56 am 05:56 Cloudy 73 22.8 71 21.7 94 94 W 5 7 29.99 1016 10 16.0934 N/A
6:15 am 06:15 Cloudy 73 23 72 22 94 94 WSW 6 9 30 1016 10 16.0934 N/A
6:56 am 06:56 Cloudy 72 22 N/A N/A SSW 3 6 30.02 1017 8 12.87472 N/A
7:47 am 07:47 Cloudy with Mist and Fog 73 23 72 22 94 94 SSW 3 6 30.03 1017 6 9.65604 N/A
7:56 am 07:56 Cloudy with Mist and Fog 72 22.2 72 22.2 100 100 N N/A 30.03 1017 6 9.65604 N/A
8:03 am 08:03 Cloudy with Mist and Fog 73 23 72 22 94 94 SSW 3 6 30.03 1017 6 9.65604 N/A
8:14 am 08:14 Cloudy with Mist and Fog 73 23 72 22 94 94 N N/A 30.03 1017 4 6.43736 0.01 0.254
8:27 am 08:27 Cloudy with Light Thunderstorms 73 23 72 22 94 94 WSW 3 6 30.03 1017 6 9.65604 0.01 0.254
8:35 am 08:35 Cloudy with Light Thunderstorms 73 23 72 22 94 94 N N/A 30.03 1017 7 11.26538 0.01 0.254
8:42 am 08:42 Cloudy with Heavy Rain 73 23 72 22 94 94 WNW 3 6 30.03 1017 5 8.0467 0.01 0.254
8:54 am 08:54 Cloudy with Heavy Thunderstorms 72 22 72 22 100 100 VRB 3 6 N/A 1.75 2.816345 0.01 0.254
8:56 am 08:56 Cloudy with Heavy Thunderstorms 72 22.2 71 21.7 97 97 VRB 3 6 30.04 1017 2 3.21868 0.01 0.254
9:07 am 09:07 Cloudy with Heavy Thunderstorms 72 22 70 21 94 94 undefined N/A 30.03 1017 5 8.0467 N/A
9:11 am 09:11 Cloudy with Nearby Thunderstorms 72 22 70 21 94 94 N N/A 30.03 1017 4 6.43736 N/A
9:23 am 09:23 Cloudy with Nearby Thunderstorms 72 22 70 21 94 94 undefined N/A 30.06 1018 4 6.43736 N/A
9:43 am 09:43 Cloudy with Heavy Rain 72 22 70 21 94 94 N N/A N/A 5 8.0467 N/A
9:56 am 09:56 Cloudy with Light Rain 71 21.7 70 21.1 96 96 W 3 6 30.06 1018 7 11.26538 N/A
10:32 am 10:32 Cloudy with Heavy Thunderstorms 72 22 70 21 94 94 WNW 8 13 30.06 1018 9 14.48406 N/A
10:46 am 10:46 Cloudy with Nearby Thunderstorms 70 21 68 20 94 94 WNW 9 15 30.09 1019 4 6.43736 N/A
10:56 am 10:56 Cloudy with Nearby Thunderstorms 70 21.1 69 20.6 97 97 N N/A 30.08 1019 6 9.65604 N/A
11:02 am 11:02 Cloudy with Rain 70 21 68 20 94 94 undefined N/A 30.09 1019 5 8.0467 N/A
11:36 am 11:36 Partly Cloudy with Nearby Thunderstorms N/A N/A N/A undefined N/A N/A N/A N/A
11:51 am 11:51 undefined N/A N/A N/A undefined N/A N/A N/A N/A
11:56 am 11:56 undefined N/A N/A N/A undefined N/A N/A N/A N/A
12:20 pm 12:20 Partly Cloudy with Nearby Thunderstorms N/A N/A N/A undefined N/A N/A N/A N/A
12:35 pm 12:35 undefined N/A N/A N/A undefined N/A N/A N/A N/A
12:56 pm 12:56 undefined N/A N/A N/A undefined N/A N/A N/A N/A
1:56 pm 13:56 undefined N/A N/A N/A undefined N/A N/A N/A N/A
2:56 pm 14:56 undefined N/A N/A N/A undefined N/A N/A N/A N/A
3:56 pm 15:56 undefined N/A N/A N/A undefined N/A N/A N/A N/A
4:56 pm 16:56 undefined N/A N/A N/A undefined N/A N/A N/A N/A
5:56 pm 17:56 undefined N/A N/A N/A undefined N/A N/A N/A N/A
6:56 pm 18:56 undefined N/A N/A N/A undefined N/A N/A N/A N/A
7:56 pm 19:56 undefined N/A N/A N/A undefined N/A N/A N/A N/A
8:56 pm 20:56 undefined N/A N/A N/A undefined N/A N/A N/A N/A
9:56 pm 21:56 undefined N/A N/A N/A undefined N/A N/A N/A N/A
10:56 pm 22:56 Clear with Mist and Fog 70 21.1 69 20.6 97 97 N N/A 30.13 1020 5 8.0467 N/A
11:07 pm 23:07 Clear with Mist and Fog 70 21 70 21 100 100 N N/A 30.12 1020 1.75 2.816345 N/A
11:10 pm 23:10 Clear with Mist and Fog 70 21 70 21 100 100 N N/A 30.12 1020 0.75 1.207005 N/A
11:18 pm 23:18 Clear with Mist and Fog 70 21 70 21 100 100 SSE 3 6 30.12 1020 1.25 2.011675 N/A
11:20 pm 23:20 Clear with Mist and Fog 70 21 70 21 100 100 SSE 3 6 30.12 1020 3 4.82802 N/A
11:23 pm 23:23 Clear with Mist and Fog 70 21 70 21 100 100 SSE 5 7 30.12 1020 1.75 2.816345 N/A
11:31 pm 23:31 Clear with Mist and Fog 70 21 70 21 100 100 SSE 6 9 30.12 1020 1 1.60934 N/A
11:34 pm 23:34 Clear with Mist and Fog 70 21 70 21 100 100 S 6 9 30.12 1020 2 3.21868 N/A
11:41 pm 23:41 Clear 72 22 70 21 94 94 undefined N/A N/A 10 16.0934 N/A
11:56 pm 23:56 Clear 69 20.6 69 20.6 100 100 N N/A 30.12 1020 9 14.48406 N/A

Powered by AerisWeather